[[{"header":{"parameterUnit":"m.s-1","parameterCategory":1,"la1":30.2991,"la2":30.254,"lo1":-89.0895,"lo2":-89.0444,"dy":0.0017,"dx":0.0017,"nx":28,"ny":28,"refTime":"2024-07-01T09:00:00:Z","depth":0,"parameterNumber":2,"parameterNumberName":"U-component_of_WINDS"},"data":[0,0,0,0,0,0,0,0,0,0,0,0,0,0,0,0,0,0,0,0,0,0,0,0,0,0,0,0,0,0,0,0,0,0,0,0,0,0,0,0,0,0,0,0,0,0,0,0,0,0,0,0,0,0,0,0,0,0,2.1735,2.1736,0,2.1782,2.1782,2.1783,2.171,2.1708,2.1705,2.1703,2.1748,2.1752,2.1755,0,0,0,0,0,0,0,0,0,0,0,0,0,2.1584,2.1587,2.1735,2.1736,2.1737,2.1782,2.1782,2.1783,2.1711,2.1708,2.1705,2.1702,2.1747,2.1751,2.1756,0,0,0,0,0,0,0,0,0,0,0,0,0,2.1642,2.1588,2.1735,2.1706,2.1704,2.1782,2.1782,2.1783,2.1711,2.1708,2.1704,2.17,2.1746,2.1751,2.1756,2.1864,0,0,2.1773,2.1775,0,0,0,0,0,0,0,0,2.1638,2.1647,2.171,2.1708,2.1706,2.1736,2.1745,2.181,2.1712,2.1709,2.1703,2.1699,2.1747,2.1752,2.1769,2.1866,2.1868,2.1773,2.1776,2.1779,2.178,0,0,0,0,0,0,0,2.1635,2.1645,2.1754,2.1711,2.1708,2.169,2.1694,2.1757,2.1748,2.1709,2.1703,2.171,2.1746,2.1764,2.177,2.1869,2.1773,2.1778,2.1781,2.1783,2.2058,2.2062,0,0,0,0,0,0,2.1634,2.1642,2.1752,2.1755,2.1662,2.1696,2.1701,2.173,2.1747,2.1746,2.1713,2.1706,2.1757,2.1764,2.1771,2.1899,2.1778,2.1783,2.1786,2.2054,2.2059,2.2064,0,0,0,0,0,0,2.1631,2.1645,2.175,2.1697,2.1709,2.1703,2.1737,2.1733,2.1752,2.1751,2.1749,2.1734,2.1754,2.1764,2.1842,2.19,2.1786,2.1791,2.2049,2.2056,2.2061,2.2156,0,0,0,0,0,0,2.1627,2.1644,2.1685,2.1699,2.1712,2.1821,2.174,2.1737,2.1761,2.1753,2.177,2.1769,2.1752,2.1834,2.1847,2.1905,2.1795,2.2044,2.2052,2.2059,2.2147,2.2164,2.2179,0,0,0,0,0,2.1622,2.1709,2.1687,2.1701,2.1763,2.1824,2.1832,2.1811,2.1766,2.1807,2.1807,2.1768,2.1892,2.1843,2.1857,2.1917,2.204,2.205,2.2059,2.214,2.2161,2.2178,0,0,0,0,0,0,2.1701,2.171,2.1686,2.178,2.1802,2.1812,2.1863,2.1834,2.1868,2.1859,2.1831,2.1836,2.192,2.1926,2.1872,2.2023,2.1958,2.1971,2.2016,2.2035,2.2051,2.2047,2.1799,0,0,0,0,0,2.1729,2.1779,2.1784,2.1866,2.1879,2.1869,2.1895,2.1877,2.1899,2.1907,2.1912,2.1934,2.1978,2.2007,2.2047,2.2148,2.2151,2.2197,2.2212,2.2225,2.2236,2.2291,2.2312,2.2094,2.2094,2.2094,0,0,2.1788,2.1799,2.1832,2.1882,2.1897,2.1949,2.1877,2.1934,2.1972,2.1915,2.199,2.1995,2.2018,2.2109,2.2149,2.2116,2.2297,2.2237,2.2247,2.2251,2.2303,2.2324,2.2342,2.21,2.2099,2.2098,0,0,2.1922,2.1935,2.2006,2.2023,2.2047,2.2041,2.2058,2.2073,2.2074,2.2149,2.2108,2.2153,2.2228,2.2246,2.2265,2.2409,2.2375,2.2423,2.2504,2.2559,2.2576,2.2591,2.2642,2.2661,2.2434,2.2434,2.2434,0,2.1992,2.2068,2.2046,2.2106,2.213,2.2083,2.2154,2.2172,2.2207,2.2225,2.2188,2.2283,2.2295,2.239,2.2425,2.2442,2.2461,2.242,2.2575,2.259,2.2604,2.2653,2.2672,2.244,2.2439,2.2438,2.2438,0,2.2153,2.2207,2.2261,2.2298,2.2328,2.2393,2.2381,2.2414,2.2395,2.2393,2.247,2.2483,2.2525,2.2547,2.2528,2.264,2.2619,2.258,2.2514,2.2631,2.2676,2.2694,2.2448,2.2446,2.2444,2.2443,0,0,2.2335,2.2361,2.2381,2.2398,2.2423,2.2463,2.2528,2.257,2.2599,2.2626,2.2679,2.2745,2.271,2.2732,2.2714,2.2762,2.2876,2.2717,2.2717,2.2746,2.3001,2.303,2.3052,2.2854,2.2857,2.286,2.2999,0,2.2468,2.258,2.2563,2.267,2.272,2.2677,2.2733,2.2754,2.2754,2.2796,2.2796,2.2844,2.2793,2.2806,2.2851,2.2852,2.2926,2.2842,2.2903,2.2905,2.2898,2.3075,2.3106,2.3236,2.3016,2.3019,2.3021,0,2.2638,2.2673,2.2786,2.2804,2.2824,2.2875,2.2913,2.2954,2.2977,2.2974,2.3,2.2975,2.3039,2.2974,2.3062,2.3006,2.303,2.3035,2.3039,2.3043,2.297,2.3084,2.3277,2.3297,2.3049,2.3047,2.3045,0,2.276,2.2835,2.2912,2.2928,2.2951,2.2988,2.2999,2.3019,2.3046,2.308,2.3098,2.3138,2.316,2.3193,2.3179,2.3133,2.3271,2.3204,2.327,2.327,2.33,2.3298,2.3499,2.3317,2.3316,2.3316,2.3315,0,2.291,2.2981,2.2968,2.3015,2.3094,2.3074,2.3152,2.3158,2.3176,2.3224,2.319,2.3236,2.3216,2.326,2.325,2.3326,2.3336,2.3335,2.3332,2.3338,2.3338,2.3353,2.3343,2.3321,2.332,2.3319,2.3318,0,2.3059,2.3053,2.3135,2.3151,2.3157,2.3214,2.3227,2.3272,2.327,2.3332,2.3345,2.3342,2.3393,2.3384,2.3439,2.3433,2.3527,2.3513,2.352,2.3516,2.3583,2.3577,2.3799,2.3828,2.3628,2.3629,2.3631,0,2.3155,2.3209,2.3231,2.3261,2.3276,2.3325,2.3353,2.3336,2.3367,2.3399,2.344,2.3489,2.3526,2.361,2.3612,2.3655,2.3641,2.3717,2.3647,2.3653,2.3643,2.3639,2.3645,2.373,2.3732,2.3734,2.3736,0,2.3326,2.3321,2.3363,2.3406,2.3441,2.3473,2.3501,2.3528,2.3514,2.355,2.3603,2.3632,2.369,2.3739,2.3779,2.379,2.3761,2.3758,2.3775,2.3782,2.3784,2.3784,2.3557,2.3752,2.3751,2.3749,2.3749,2.3748,2.3451,2.3497,2.3521,2.357,2.359,2.3618,2.3661,2.3666,2.371,2.3756,2.3744,2.3804,2.3827,2.3879,2.3895,2.3941,2.3913,2.3939,2.3945,2.3951,2.396,2.3778,2.3949,2.3948,2.3948,2.3947,2.3947,0,2.362,2.3634,2.3679,2.3721,2.376,2.3731,2.3761,2.3796,2.3849,2.3874,2.3912,2.3973,2.402,2.4028,2.4073,2.4109,2.4097,2.4121,2.4118,2.4121,2.3982,2.3962,2.4131,2.4131,2.413,2.413,2.413,2.413,2.3713,2.379,2.3788,2.3875,2.3888,2.3947,2.3967,2.3993,2.4013,2.4083,2.4123,2.4128,2.4146,2.4193,2.4235,2.4236,2.4254,2.4284,2.428,2.4149,2.4131,2.4114,2.4095,2.4288,2.4289,2.4416,2.4417,2.4418]},{"header":{"parameterUnit":"m.s-1","parameterCategory":1,"la1":30.2991,"la2":30.254,"lo1":-89.0895,"lo2":-89.0444,"dy":0.0017,"dx":0.0017,"nx":28,"ny":28,"refTime":"2024-07-01T09:00:00:Z","depth":0,"parameterNumber":3,"parameterNumberName":"V-component_of_WINDS"},"data":[0,0,0,0,0,0,0,0,0,0,0,0,0,0,0,0,0,0,0,0,0,0,0,0,0,0,0,0,0,0,0,0,0,0,0,0,0,0,0,0,0,0,0,0,0,0,0,0,0,0,0,0,0,0,0,0,0,0,-1.0698,-1.0699,0,-1.0764,-1.0764,-1.0765,-1.0862,-1.0863,-1.0865,-1.0867,-1.0929,-1.093,-1.093,0,0,0,0,0,0,0,0,0,0,0,0,0,-1.0652,-1.0652,-1.0698,-1.0699,-1.07,-1.0763,-1.0764,-1.0765,-1.0861,-1.0863,-1.0865,-1.0867,-1.0929,-1.093,-1.093,0,0,0,0,0,0,0,0,0,0,0,0,0,-1.069,-1.0652,-1.0698,-1.0755,-1.0761,-1.0763,-1.0764,-1.0765,-1.0861,-1.0863,-1.0866,-1.0868,-1.0929,-1.093,-1.093,-1.088,0,0,-1.093,-1.093,0,0,0,0,0,0,0,0,-1.0688,-1.0691,-1.0746,-1.0751,-1.0758,-1.0807,-1.0771,-1.0804,-1.086,-1.0823,-1.0867,-1.087,-1.0886,-1.089,-1.0897,-1.0882,-1.0885,-1.093,-1.093,-1.093,-1.093,0,0,0,0,0,0,0,-1.0685,-1.0689,-1.0724,-1.0747,-1.0754,-1.0776,-1.0785,-1.0778,-1.0839,-1.0826,-1.0833,-1.084,-1.089,-1.0896,-1.0899,-1.0886,-1.093,-1.093,-1.093,-1.093,-1.0831,-1.0829,0,0,0,0,0,0,-1.0674,-1.0686,-1.0722,-1.0726,-1.0728,-1.0775,-1.0784,-1.0789,-1.084,-1.085,-1.0838,-1.0844,-1.0895,-1.0899,-1.0902,-1.0844,-1.093,-1.093,-1.093,-1.0834,-1.0831,-1.0828,0,0,0,0,0,0,-1.0673,-1.0677,-1.0719,-1.0708,-1.0715,-1.0773,-1.0777,-1.0789,-1.0795,-1.0849,-1.086,-1.0833,-1.0897,-1.0901,-1.0884,-1.0847,-1.093,-1.0931,-1.0837,-1.0833,-1.0829,-1.0728,0,0,0,0,0,0,-1.0671,-1.0675,-1.0658,-1.0707,-1.0716,-1.0701,-1.0775,-1.0788,-1.0795,-1.0805,-1.0847,-1.0857,-1.0899,-1.0883,-1.0884,-1.0849,-1.0931,-1.0841,-1.0835,-1.083,-1.0735,-1.0721,-1.0709,0,0,0,0,0,-1.0669,-1.0627,-1.0657,-1.066,-1.0695,-1.0699,-1.0704,-1.0755,-1.0792,-1.0774,-1.0808,-1.0855,-1.0852,-1.0881,-1.0882,-1.0847,-1.0843,-1.0837,-1.0831,-1.0741,-1.0724,-1.071,0,0,0,0,0,0,-1.057,-1.0634,-1.0668,-1.064,-1.0664,-1.0715,-1.0694,-1.0736,-1.0748,-1.0756,-1.0818,-1.0827,-1.0801,-1.0823,-1.0854,-1.08,-1.0855,-1.0848,-1.0785,-1.077,-1.0757,-1.0751,-1.0931,0,0,0,0,0,-1.0546,-1.0545,-1.0601,-1.0571,-1.0581,-1.0635,-1.0639,-1.0677,-1.0703,-1.0712,-1.0746,-1.0768,-1.0772,-1.0773,-1.078,-1.074,-1.0749,-1.0716,-1.0704,-1.0693,-1.0685,-1.0663,-1.0648,-1.0808,-1.0808,-1.0808,0,0,-1.0494,-1.0529,-1.0524,-1.0552,-1.0574,-1.057,-1.0643,-1.0636,-1.0633,-1.0711,-1.0696,-1.0721,-1.075,-1.072,-1.0709,-1.0738,-1.0644,-1.0685,-1.0676,-1.0675,-1.0655,-1.064,-1.0626,-1.0803,-1.0804,-1.0805,0,0,-1.0396,-1.0424,-1.0401,-1.0422,-1.0456,-1.0492,-1.0487,-1.0532,-1.0552,-1.0539,-1.0597,-1.0594,-1.06,-1.0617,-1.0627,-1.0536,-1.0578,-1.0537,-1.0468,-1.0445,-1.0433,-1.0422,-1.0386,-1.0372,-1.053,-1.053,-1.053,0,-1.0327,-1.0324,-1.0383,-1.0372,-1.0381,-1.0454,-1.043,-1.0447,-1.048,-1.0484,-1.0517,-1.0525,-1.055,-1.0524,-1.0501,-1.0508,-1.0501,-1.053,-1.043,-1.042,-1.041,-1.0377,-1.0363,-1.0524,-1.0525,-1.0526,-1.0526,0,-1.0236,-1.0233,-1.021,-1.0241,-1.0248,-1.0231,-1.0285,-1.0285,-1.0322,-1.0355,-1.0338,-1.0371,-1.0385,-1.0382,-1.0419,-1.0361,-1.0377,-1.0419,-1.0475,-1.0389,-1.0358,-1.0345,-1.0516,-1.0518,-1.052,-1.0521,0,0,-1.0075,-1.014,-1.013,-1.0144,-1.0186,-1.0184,-1.017,-1.0184,-1.0181,-1.0202,-1.0188,-1.0192,-1.0231,-1.0242,-1.0281,-1.0262,-1.0183,-1.0306,-1.0308,-1.0279,-1.0117,-1.0082,-1.0066,-1.0214,-1.0211,-1.021,-1.0114,0,-0.9983,-0.9962,-1.0014,-0.9979,-0.9975,-1.0045,-1.0031,-1.0055,-1.0085,-1.0085,-1.0119,-1.0119,-1.0172,-1.0179,-1.0163,-1.0196,-1.0151,-1.0205,-1.0198,-1.0197,-1.0184,-1.0051,-1.0014,-0.9922,-1.0102,-1.01,-1.0099,0,-0.9872,-0.9888,-0.9852,-0.9895,-0.9896,-0.9883,-0.9899,-0.99,-0.9927,-0.995,-0.9962,-1.0008,-0.9994,-1.0051,-1.0031,-1.0066,-1.0067,-1.0083,-1.0081,-1.0079,-1.014,-1.0041,-0.9894,-0.9878,-1.0081,-1.0083,-1.0084,0,-0.9754,-0.9766,-0.9746,-0.9756,-0.9807,-0.9796,-0.9816,-0.9846,-0.9851,-0.9865,-0.9868,-0.9881,-0.9886,-0.9894,-0.9941,-0.9978,-0.9914,-0.9975,-0.993,-0.9928,-0.991,-0.9909,-0.9756,-0.9917,-0.9918,-0.9918,-0.9918,0,-0.9643,-0.9617,-0.9693,-0.968,-0.9652,-0.9713,-0.9684,-0.9711,-0.9737,-0.9729,-0.9791,-0.9782,-0.9847,-0.9844,-0.9882,-0.9857,-0.9861,-0.9877,-0.9886,-0.9869,-0.9866,-0.9867,-0.9873,-0.9914,-0.9915,-0.9916,-0.9916,0,-0.9504,-0.9555,-0.9536,-0.9586,-0.9598,-0.9575,-0.9617,-0.9606,-0.9641,-0.9629,-0.963,-0.9684,-0.9684,-0.9733,-0.9743,-0.9768,-0.9726,-0.975,-0.9717,-0.9722,-0.9672,-0.9675,-0.9511,-0.9491,-0.9669,-0.9667,-0.9665,0,-0.9428,-0.941,-0.9458,-0.9458,-0.9475,-0.9474,-0.9479,-0.9538,-0.954,-0.957,-0.9554,-0.956,-0.9567,-0.9563,-0.9602,-0.9609,-0.963,-0.9573,-0.9632,-0.9614,-0.9624,-0.9623,-0.962,-0.9558,-0.9556,-0.9555,-0.9553,0,-0.9286,-0.9312,-0.9318,-0.9331,-0.9336,-0.9349,-0.9366,-0.9362,-0.9427,-0.9426,-0.9427,-0.9432,-0.9443,-0.9446,-0.946,-0.948,-0.9525,-0.9535,-0.9524,-0.9503,-0.9483,-0.9489,-0.9678,-0.9537,-0.9539,-0.954,-0.9541,-0.9541,-0.9174,-0.916,-0.9191,-0.9195,-0.9214,-0.9229,-0.922,-0.9254,-0.9256,-0.9269,-0.9305,-0.9299,-0.9325,-0.935,-0.9365,-0.9361,-0.9389,-0.9374,-0.937,-0.9364,-0.9352,-0.9488,-0.9364,-0.9365,-0.9365,-0.9366,-0.9366,0,-0.9032,-0.9056,-0.9059,-0.9081,-0.9083,-0.9129,-0.915,-0.9147,-0.9142,-0.9164,-0.917,-0.9169,-0.9173,-0.9212,-0.922,-0.9208,-0.9229,-0.9207,-0.9206,-0.9209,-0.9329,-0.9335,-0.919,-0.919,-0.919,-0.919,-0.919,-0.919,-0.8958,-0.8936,-0.8965,-0.8952,-0.8976,-0.8971,-0.8979,-0.8991,-0.9009,-0.9006,-0.9009,-0.9036,-0.9064,-0.9074,-0.9078,-0.9089,-0.9087,-0.9058,-0.9075,-0.9185,-0.9202,-0.9218,-0.9224,-0.9058,-0.9058,-0.8956,-0.8955,-0.8954]}]]